FW6620 Weather Reports


time (UTC)temp
F
wind
direction
speed
knots
gust
knots
rain 1hr
in
rain 24hr
in
rain mn
in
humidity
%
barometer
mb
20260901095047 80 0 0.0 0.0 0.00 0.00 0.00 84 1016.6
20260901094559 81 0 0.0 0.0 0.00 0.00 0.00 84 1016.6
20260901094046 81 0 0.0 1.7 0.00 0.00 0.00 84 1016.7
20260901093547 81 0 0.0 1.7 0.00 0.00 0.00 84 1016.7
20260901093058 81 0 0.0 1.7 0.00 0.00 0.00 84 1016.7
20260901092548 81 0 0.0 1.7 0.00 0.00 0.00 84 1016.8
20260901092048 81 0 0.0 1.7 0.00 0.00 0.00 84 1016.8
20260901091604 81 0 0.0 1.7 0.00 0.00 0.00 84 1016.8
20260901091047 81 66 0.0 1.7 0.00 0.00 0.00 83 1016.9
20260901090544 81 0 0.0 0.0 0.00 0.00 0.00 83 1016.9
20260901090100 81 0 0.0 1.7 0.00 0.00 0.00 83 1016.7
20260901085547 81 0 0.0 1.7 0.00 0.00 0.00 82 1016.7
20260901085047 81 0 0.0 0.0 0.00 0.00 0.00 82 1016.6
20260901084557 81 0 0.0 0.9 0.00 0.00 0.00 82 1016.6
20260901084047 81 0 0.0 0.9 0.00 0.00 0.00 81 1016.5
20260901083547 81 0 0.0 1.7 0.00 0.00 0.00 81 1016.5
20260901083059 82 0 0.0 1.7 0.00 0.00 0.00 81 1016.6
20260901082547 82 0 0.0 1.7 0.00 0.00 0.00 80 1016.6
20260901082048 82 0 0.0 0.9 0.00 0.00 0.00 80 1016.5
20260901081556 82 0 0.0 0.9 0.00 0.00 0.00 80 1016.5
20260901081047 82 0 0.0 0.0 0.00 0.00 0.00 79 1016.5
20260901080547 82 0 0.0 0.0 0.00 0.00 0.00 79 1016.6
20260901080112 82 0 0.0 1.7 0.00 0.00 0.00 78 1016.6
20260901075546 82 0 0.0 1.7 0.00 0.00 0.00 79 1016.6
20260901075048 82 0 0.0 1.7 0.00 0.00 0.00 78 1016.7
20260901074554 82 0 0.0 1.7 0.00 0.00 0.00 78 1016.7
20260901074047 83 0 0.0 2.6 0.00 0.00 0.00 78 1016.6
20260901073547 83 0 0.0 2.6 0.00 0.00 0.00 77 1016.7
20260901073102 83 0 0.0 2.6 0.00 0.00 0.00 77 1016.6
20260901072550 83 0 0.0 2.6 0.00 0.00 0.00 76 1016.6
20260901072051 83 0 0.0 2.6 0.00 0.00 0.00 76 1016.6
20260901071603 83 0 0.0 2.6 0.00 0.00 0.00 76 1016.6
20260901071047 83 0 0.0 2.6 0.00 0.00 0.00 75 1016.6
20260901070548 83 0 0.0 2.6 0.00 0.00 0.00 75 1016.6
20260901070103 83 0 0.0 2.6 0.00 0.00 0.00 75 1016.6
20260901065549 84 0 0.0 2.6 0.00 0.00 0.00 75 1016.5
20260901065047 84 0 0.0 2.6 0.00 0.00 0.00 74 1016.5
20260901064608 84 65 0.0 3.5 0.00 0.00 0.00 74 1016.5
20260901064047 84 0 0.0 3.5 0.00 0.00 0.00 74 1016.5
20260901063547 84 0 0.0 2.6 0.00 0.00 0.00 73 1016.6
20260901063123 84 67 0.0 2.6 0.00 0.00 0.00 73 1016.5
20260901062548 84 0 0.9 5.2 0.00 0.00 0.00 72 1016.5
20260901062047 84 0 0.9 5.2 0.00 0.00 0.00 72 1016.4
20260901061602 84 0 0.0 5.2 0.00 0.00 0.00 71 1016.3
20260901061047 85 0 0.0 5.2 0.00 0.00 0.00 71 1016.3
20260901060552 85 0 0.0 5.2 0.00 0.00 0.00 71 1016.2
20260901060058 85 0 0.9 5.2 0.00 0.00 0.00 70 1016.3
20260901055547 85 0 0.0 3.5 0.00 0.00 0.00 70 1016.3
20260901055047 85 60 0.9 3.5 0.00 0.00 0.00 70 1016.3
20260901054553 85 0 0.0 5.2 0.00 0.00 0.00 70 1016.1
20260901054047 85 60 0.0 5.2 0.00 0.00 0.00 70 1016.2
20260901053549 85 58 0.9 5.2 0.00 0.00 0.00 70 1016.1
20260901053114 86 58 0.9 3.5 0.00 0.00 0.00 70 1016.1
20260901052548 86 0 0.9 3.5 0.00 0.00 0.00 69 1016.2
20260901052048 86 70 0.0 3.5 0.00 0.00 0.00 69 1016.2
20260901051559 86 0 0.0 5.2 0.00 0.00 0.00 69 1016.1
20260901051048 86 60 0.0 5.2 0.00 0.00 0.00 68 1016.0
20260901050547 87 0 0.0 3.5 0.00 0.00 0.00 68 1016.0
20260901045547 87 0 0.0 3.5 0.00 0.00 0.00 67 1016.0
20260901045051 87 0 0.0 3.5 0.00 0.00 0.00 67 1016.0
20260901044559 87 67 0.9 3.5 0.00 0.00 0.00 66 1015.9
20260901044047 87 0 0.0 8.7 0.00 0.00 0.00 66 1015.8
20260901043548 87 57 1.7 8.7 0.00 0.00 0.00 66 1015.8
20260901043059 87 61 0.0 2.6 0.00 0.00 0.00 65 1015.8
20260901042547 88 0 0.0 3.5 0.00 0.00 0.00 65 1015.9
20260901042049 88 0 0.0 3.5 0.00 0.00 0.00 65 1015.8
20260901041559 88 53 0.0 6.1 0.00 0.00 0.00 64 1015.8
20260901041047 88 0 0.0 6.1 0.00 0.00 0.00 64 1015.9
20260901040547 88 72 0.9 7.8 0.00 0.00 0.00 64 1015.7
20260901040104 88 0 0.9 7.8 0.00 0.00 0.00 63 1015.7
20260901035546 88 64 0.9 5.2 0.00 0.00 0.00 63 1015.8
20260901035048 88 56 0.9 4.3 0.00 0.00 0.00 62 1015.7
20260901034559 89 0 0.0 2.6 0.00 0.00 0.00 62 1015.7
20260901034045 89 91 0.0 3.5 0.00 0.00 0.00 61 1015.6
20260901033545 89 0 0.9 6.1 0.00 0.00 0.00 60 1015.6
20260901033055 89 0 0.9 6.1 0.00 0.00 0.00 60 1015.6
20260901032546 89 64 0.9 7.8 0.00 0.00 0.00 58 1015.5
20260901032045 89 64 0.9 7.8 0.00 0.00 0.00 58 1015.6
20260901031556 89 76 0.0 4.3 0.00 0.00 0.00 56 1015.5
20260901031045 90 0 0.0 3.5 0.00 0.00 0.00 56 1015.5
20260901030545 90 63 0.9 3.5 0.00 0.00 0.00 55 1015.3
20260901030100 90 184 0.9 2.6 0.00 0.00 0.00 55 1015.4
20260901025545 90 66 0.0 5.2 0.00 0.00 0.00 53 1015.2
20260901025045 90 0 0.0 5.2 0.00 0.00 0.00 53 1015.1
20260901024603 90 155 0.9 3.5 0.00 0.00 0.00 52 1015.0
20260901024045 90 87 0.0 2.6 0.00 0.00 0.00 51 1014.9
20260901023545 91 71 0.0 2.6 0.00 0.00 0.00 49 1014.9
20260901023106 91 70 0.0 2.6 0.00 0.00 0.00 49 1014.7
20260901022544 91 0 0.0 0.0 0.00 0.00 0.00 49 1014.6
20260901022045 91 0 0.0 0.9 0.00 0.00 0.00 49 1014.4
20260901021558 91 0 0.0 1.7 0.00 0.00 0.00 49 1014.4
20260901021049 91 0 0.0 1.7 0.00 0.00 0.00 49 1014.3
20260901020545 91 0 0.0 1.7 0.00 0.00 0.00 49 1014.2
20260901020059 91 75 0.0 0.9 0.00 0.00 0.00 48 1014.2
20260901015544 91 0 0.0 0.9 0.00 0.00 0.00 48 1014.1
20260901015045 91 0 0.0 0.0 0.00 0.00 0.00 48 1014.1
20260901014600 92 0 0.0 0.0 0.00 0.00 0.00 50 1013.9
20260901014049 92 0 0.0 0.0 0.00 0.00 0.00 49 1014.0
20260901013545 92 0 0.0 0.0 0.00 0.00 0.00 49 1013.9
20260901013108 92 0 0.0 0.0 0.00 0.00 0.00 51 1013.9
20260901012544 93 0 0.0 0.0 0.00 0.00 0.00 48 1013.8
20260901012045 93 0 0.0 0.0 0.00 0.00 0.00 48 1013.9
20260901011604 93 0 0.0 0.0 0.00 0.00 0.00 46 1013.7
20260901011046 93 0 0.0 0.0 0.00 0.00 0.00 47 1013.7
20260901010545 93 0 0.0 0.9 0.00 0.00 0.00 46 1013.7
20260901010058 94 0 0.0 0.9 0.00 0.00 0.00 45 1013.6
20260901005547 94 0 0.0 1.7 0.00 0.00 0.00 44 1013.6
20260901005045 94 0 0.0 1.7 0.00 0.00 0.00 45 1013.5
20260901004603 94 0 0.0 1.7 0.00 0.00 0.00 44 1013.5
20260901004044 94 0 0.0 0.9 0.00 0.00 0.00 45 1013.6
20260901003544 94 0 0.0 1.7 0.00 0.00 0.00 44 1013.6
20260901003108 94 76 0.0 1.7 0.00 0.00 0.00 44 1013.6
20260901002544 95 0 0.0 1.7 0.00 0.00 0.00 44 1013.6
20260901002045 95 76 0.0 2.6 0.00 0.00 0.00 44 1013.6
20260901001556 95 0 0.0 2.6 0.00 0.00 0.00 44 1013.6
20260901001047 95 0 0.0 2.6 0.00 0.00 0.00 43 1013.5
20260901000546 95 76 0.0 1.7 0.00 0.00 0.00 43 1013.5
20260901000055 95 0 0.0 0.9 0.00 0.00 0.00 44 1013.5
20260831235543 96 0 0.0 1.7 0.00 0.00 0.00 45 1013.5
20260831235049 96 0 0.0 2.6 0.00 0.00 0.00 44 1013.4
20260831234600 96 76 0.0 2.6 0.00 0.00 0.00 44 1013.4
20260831234046 96 0 0.0 2.6 0.00 0.00 0.00 44 1013.5
20260831233545 96 0 0.0 1.7 0.00 0.00 0.00 45 1013.4
20260831233058 96 0 0.0 1.7 0.00 0.00 0.00 44 1013.5
20260831232544 96 0 0.0 1.7 0.00 0.00 0.00 44 1013.4
20260831232044 96 0 0.0 1.7 0.00 0.00 0.00 44 1013.5
20260831231611 96 74 0.0 1.7 0.00 0.00 0.00 45 1013.5
20260831231045 97 74 0.0 2.6 0.00 0.00 0.00 46 1013.5
20260831230545 97 0 0.0 2.6 0.00 0.00 0.00 43 1013.5
20260831230054 97 0 0.0 3.5 0.00 0.00 0.00 43 1013.6
20260831225544 97 0 0.0 6.1 0.00 0.00 0.00 44 1013.6
20260831225045 97 56 0.9 6.1 0.00 0.00 0.00 44 1013.5
20260831224600 97 0 0.9 2.6 0.00 0.00 0.00 44 1013.5
20260831224045 97 0 0.0 2.6 0.00 0.00 0.00 45 1013.6
20260831223545 97 63 0.0 3.5 0.00 0.00 0.00 43 1013.6
20260831223108 97 62 0.0 3.5 0.00 0.00 0.00 44 1013.8
20260831222545 97 62 0.9 6.1 0.00 0.00 0.00 45 1013.8
20260831222044 98 0 0.9 6.1 0.00 0.00 0.00 44 1013.9
20260831221603 98 60 0.9 3.5 0.00 0.00 0.00 44 1013.8
20260831221045 98 0 0.0 2.6 0.00 0.00 0.00 45 1013.8
20260831220545 97 0 0.0 2.6 0.00 0.00 0.00 46 1013.8
20260831220055 97 0 0.0 2.6 0.00 0.00 0.00 47 1013.7
20260831215545 98 0 0.0 0.9 0.00 0.00 0.00 45 1013.8
20260831215047 98 0 0.0 3.5 0.00 0.00 0.00 46 1013.9
20260831214559 98 0 0.0 3.5 0.00 0.00 0.00 45 1014.0
20260831214045 98 61 0.0 2.6 0.00 0.00 0.00 44 1014.1
20260831213544 99 61 0.9 2.6 0.00 0.00 0.00 45 1014.2
20260831213100 99 0 0.9 3.5 0.00 0.00 0.00 45 1014.2
20260831212545 99 0 0.0 3.5 0.00 0.00 0.00 46 1014.2
20260831212045 98 60 0.0 3.5 0.00 0.00 0.00 45 1014.3
20260831211604 98 0 0.0 3.5 0.00 0.00 0.00 46 1014.3
20260831211045 98 63 0.9 5.2 0.00 0.00 0.00 43 1014.4
20260831210544 98 0 0.9 6.1 0.00 0.00 0.00 44 1014.5
20260831210100 98 0 0.9 6.1 0.00 0.00 0.00 44 1014.6
20260831205545 98 56 0.9 6.1 0.00 0.00 0.00 46 1014.7
20260831205045 98 64 0.0 3.5 0.00 0.00 0.00 46 1014.7
20260831204557 97 0 0.0 1.7 0.00 0.00 0.00 46 1014.8
20260831204045 97 0 0.0 6.1 0.00 0.00 0.00 48 1015.0
20260831203544 97 74 0.9 6.1 0.00 0.00 0.00 47 1015.1
20260831203057 97 51 0.9 5.2 0.00 0.00 0.00 47 1015.2
20260831202544 97 0 0.0 6.1 0.00 0.00 0.00 48 1015.3
20260831202046 97 55 0.9 6.1 0.00 0.00 0.00 50 1015.4
20260831201601 97 78 0.0 1.7 0.00 0.00 0.00 48 1015.4
20260831201045 97 78 0.0 3.5 0.00 0.00 0.00 48 1015.6
20260831200545 96 0 0.0 3.5 0.00 0.00 0.00 49 1015.7
20260831200058 96 73 0.0 1.7 0.00 0.00 0.00 49 1015.6
20260831195548 96 74 0.0 5.2 0.00 0.00 0.00 48 1015.7
20260831195045 96 73 0.9 6.1 0.00 0.00 0.00 50 1015.9
20260831194641 96 53 1.7 6.1 0.00 0.00 0.00 49 1016.0
20260831194045 96 56 0.9 3.5 0.00 0.00 0.00 49 1016.0
20260831193545 96 0 0.0 2.6 0.00 0.00 0.00 50 1016.0
20260831193059 96 0 0.0 2.6 0.00 0.00 0.00 51 1016.1
20260831192545 96 67 0.9 6.1 0.00 0.00 0.00 52 1016.2
20260831192045 96 0 0.0 6.1 0.00 0.00 0.00 49 1016.2
20260831191556 96 64 0.9 6.1 0.00 0.00 0.00 51 1016.4
20260831191044 96 66 0.0 3.5 0.00 0.00 0.00 53 1016.4
20260831190548 95 66 0.9 3.5 0.00 0.00 0.00 52 1016.4
20260831185545 95 0 0.9 5.2 0.00 0.00 0.00 53 1016.6
20260831185044 95 56 0.9 7.0 0.00 0.00 0.00 53 1016.7
20260831184557 95 0 1.7 7.0 0.00 0.00 0.00 54 1016.8
20260831184045 95 55 1.7 7.0 0.00 0.00 0.00 54 1016.9
20260831183548 95 62 0.0 3.5 0.00 0.00 0.00 57 1016.9
20260831183058 94 0 0.0 5.2 0.00 0.00 0.00 55 1016.9
20260831182546 94 62 0.9 6.1 0.00 0.00 0.00 56 1016.9
20260831182047 94 64 0.9 6.1 0.00 0.00 0.00 54 1016.9
20260831181556 94 73 0.0 2.6 0.00 0.00 0.00 57 1016.9
20260831181050 94 63 0.0 2.6 0.00 0.00 0.00 57 1017.0
20260831180546 94 61 0.0 3.5 0.00 0.00 0.00 57 1017.1
20260831180056 93 70 0.0 3.5 0.00 0.00 0.00 60 1017.3
20260831175547 93 187 0.9 3.5 0.00 0.00 0.00 60 1017.3
20260831175048 93 62 0.0 3.5 0.00 0.00 0.00 59 1017.4
20260831174601 92 62 0.9 6.1 0.00 0.00 0.00 62 1017.5
20260831174050 92 0 0.9 6.1 0.00 0.00 0.00 60 1017.5
20260831173546 92 66 0.0 6.1 0.00 0.00 0.00 63 1017.5
20260831173057 92 56 1.7 6.1 0.00 0.00 0.00 61 1017.7
20260831172546 92 61 0.9 3.5 0.00 0.00 0.00 63 1017.7
20260831172046 91 61 0.0 6.1 0.00 0.00 0.00 65 1017.8
20260831171559 91 62 0.0 6.1 0.00 0.00 0.00 63 1017.8
20260831171047 91 61 0.9 6.1 0.00 0.00 0.00 64 1017.8
20260831170546 91 66 0.0 2.6 0.00 0.00 0.00 63 1017.7
20260831170052 91 0 0.0 2.6 0.00 0.00 0.00 66 1017.8
20260831165549 90 0 0.0 5.2 0.00 0.00 0.00 67 1017.9
20260831165046 90 66 0.0 5.2 0.00 0.00 0.00 67 1018.0
20260831164600 90 0 0.9 5.2 0.00 0.00 0.00 67 1017.9
20260831164046 89 58 0.9 5.2 0.00 0.00 0.00 69 1017.9
20260831163546 88 58 0.0 2.6 0.00 0.00 0.00 71 1017.9
20260831163057 88 0 0.9 5.2 0.00 0.00 0.00 71 1018.0
20260831162547 87 0 0.0 5.2 0.00 0.00 0.00 71 1017.9
20260831162050 87 0 0.9 5.2 0.00 0.00 0.00 72 1018.0
20260831161605 87 66 0.0 2.6 0.00 0.00 0.00 73 1018.0
20260831161047 87 0 0.0 3.5 0.00 0.00 0.00 73 1017.9
20260831160546 87 0 0.0 3.5 0.00 0.00 0.00 72 1018.0
20260831160051 87 67 0.9 3.5 0.00 0.00 0.00 72 1017.9
20260831155547 87 67 0.0 3.5 0.00 0.00 0.00 74 1017.9
20260831155047 86 68 0.0 2.6 0.00 0.00 0.00 75 1017.8
20260831154629 86 0 0.9 2.6 0.00 0.00 0.00 75 1017.8
20260831154047 85 68 0.9 2.6 0.00 0.00 0.00 76 1017.9
20260831153546 85 58 0.0 5.2 0.00 0.00 0.00 77 1017.9
20260831153116 84 58 0.9 5.2 0.00 0.00 0.00 78 1017.8
20260831152547 84 0 0.0 3.5 0.00 0.00 0.00 78 1017.8
20260831152046 84 55 0.9 5.2 0.00 0.00 0.00 78 1017.8
20260831151601 84 0 0.9 5.2 0.00 0.00 0.00 79 1017.8
20260831151046 84 53 1.7 7.8 0.00 0.00 0.00 77 1017.7
20260831150547 84 62 1.7 7.8 0.00 0.00 0.00 78 1017.7
20260831145549 84 0 0.9 3.5 0.00 0.00 0.00 81 1017.8
20260831145046 83 60 0.0 3.5 0.00 0.00 0.00 82 1017.6
20260831144644 83 60 0.0 3.5 0.00 0.00 0.00 83 1017.6
20260831144046 83 60 0.9 3.5 0.00 0.00 0.00 84 1017.5
20260831143550 82 0 0.0 3.5 0.00 0.00 0.00 85 1017.6
20260831143100 82 57 0.0 3.5 0.00 0.00 0.00 86 1017.5
20260831142549 82 0 0.9 3.5 0.00 0.00 0.00 87 1017.4
20260831142046 81 0 0.0 2.6 0.00 0.00 0.00 87 1017.5
20260831141557 81 0 0.0 5.2 0.00 0.00 0.00 87 1017.5
20260831141043 81 0 0.0 5.2 0.00 0.00 0.00 88 1017.4
20260831140546 81 0 0.0 2.6 0.00 0.00 0.00 89 1017.4
20260831140052 80 0 0.9 2.6 0.00 0.00 0.00 89 1017.3
20260831135547 80 0 0.0 2.6 0.00 0.00 0.00 91 1017.2
20260831135047 80 0 0.0 2.6 0.00 0.00 0.00 90 1017.3
20260831134601 80 0 0.0 0.9 0.00 0.00 0.00 91 1017.3
20260831134047 79 0 0.0 0.9 0.00 0.00 0.00 92 1017.2
20260831133546 79 0 0.0 1.7 0.00 0.00 0.00 92 1017.2
20260831133103 79 0 0.0 2.6 0.00 0.00 0.00 92 1017.1
20260831132546 79 0 0.0 2.6 0.00 0.00 0.00 92 1017.1
20260831132046 79 0 0.0 2.6 0.00 0.00 0.00 92 1017.1
20260831131604 78 58 0.0 2.6 0.00 0.00 0.00 92 1016.9
20260831131046 78 0 0.0 2.6 0.00 0.00 0.00 92 1017.0
20260831130545 78 58 0.0 1.7 0.00 0.00 0.00 93 1016.9
20260831130109 78 0 0.0 0.0 0.00 0.00 0.00 92 1016.8
20260831125546 78 0 0.0 0.0 0.00 0.00 0.00 91 1016.8
20260831125046 78 0 0.0 0.0 0.00 0.00 0.00 92 1016.6
20260831124603 78 0 0.0 0.0 0.00 0.00 0.00 92 1016.6
20260831124046 78 0 0.0 0.0 0.00 0.00 0.00 92 1016.6
20260831123546 78 0 0.0 0.0 0.00 0.00 0.00 92 1016.6
20260831123100 78 0 0.0 0.0 0.00 0.00 0.00 92 1016.5
20260831122546 78 0 0.0 0.0 0.00 0.00 0.00 91 1016.4
20260831122046 78 0 0.0 0.0 0.00 0.00 0.00 91 1016.6
20260831121558 78 0 0.0 0.0 0.00 0.00 0.00 91 1016.6
20260831121044 79 0 0.0 0.0 0.00 0.00 0.00 91 1016.5
20260831120547 79 0 0.0 0.0 0.00 0.00 0.00 91 1016.5
20260831120049 79 0 0.0 0.0 0.00 0.00 0.00 91 1016.4
20260831115545 79 0 0.0 0.0 0.00 0.00 0.00 91 1016.4
20260831115046 79 0 0.0 0.0 0.00 0.00 0.00 91 1016.3
20260831114601 79 0 0.0 1.7 0.00 0.00 0.00 91 1016.4
20260831114046 79 0 0.0 1.7 0.00 0.00 0.00 91 1016.5
20260831113547 79 0 0.0 1.7 0.00 0.00 0.00 91 1016.5
20260831113105 79 0 0.0 1.7 0.00 0.00 0.00 90 1016.5
20260831112547 79 0 0.0 1.7 0.00 0.00 0.00 90 1016.6
20260831112046 79 0 0.0 0.9 0.00 0.00 0.00 90 1016.5
20260831111557 79 0 0.0 0.9 0.00 0.00 0.00 90 1016.4
20260831111046 79 0 0.0 1.7 0.00 0.00 0.00 90 1016.3
20260831110546 79 0 0.0 1.7 0.00 0.00 0.00 90 1016.4
20260831110059 79 0 0.0 1.7 0.00 0.00 0.00 90 1016.4
20260831105546 79 0 0.0 0.9 0.00 0.00 0.00 90 1016.4
20260831105046 79 58 0.0 0.0 0.00 0.00 0.00 90 1016.3
20260831104603 79 0 0.0 0.0 0.00 0.00 0.00 90 1016.3
20260831104047 79 0 0.0 0.0 0.00 0.00 0.00 90 1016.3
20260831103546 79 0 0.0 0.9 0.00 0.00 0.00 90 1016.3
20260831103056 79 0 0.0 0.9 0.00 0.00 0.00 90 1016.3
20260831102546 79 0 0.0 0.9 0.00 0.00 0.00 90 1016.3
20260831102046 79 0 0.0 0.9 0.00 0.00 0.00 89 1016.3
20260831101556 79 0 0.0 2.6 0.00 0.00 0.00 89 1016.3
20260831101046 79 0 0.0 2.6 0.00 0.00 0.00 89 1016.3
20260831100547 80 59 0.0 0.9 0.00 0.00 0.00 89 1016.4
20260831100119 80 0 0.0 2.6 0.00 0.00 0.00 89 1016.3
20260831095546 80 0 0.0 2.6 0.00 0.00 0.00 89 1016.3